Voltar ao catálogo

IRIDIUM 33 DEB

AtivoPO
NORAD 36483·DEBRIS·🇺🇸 United States

Lançado Sep 14, 1997 de Baikonur Cosmodrome

Loading…

Próximas Passagens (próximas 24 horas)

TLE

AtualizadoSource: Space-Track

Época: Sep 11, 2026, 10:05 UTC

1 36483U 97051VZ  26254.42033527  .00000907  00000-0  24574-3 0  9992
2 36483  86.3766 295.7071 0007082 313.2576  46.8035 14.46672415690873

Acompanhe IRIDIUM 33 DEB em tempo real com AllMySat

Download on the App Store